| time (UTC) | temp F | wind direction | speed MPH | gust MPH | rain 1hr in | rain 24hr in | rain mn in | humidity % | barometer mb |
| 20260508191548 | 50 | 22 | 4.0 | 9.0 | 0.00 | 0.28 | 0.00 | 78 | 1001.4 |
| 20260508190048 | 49 | 45 | 5.0 | 9.0 | 0.00 | 0.28 | 0.00 | 79 | 1001.5 |
| 20260508184548 | 50 | 50 | 5.0 | 9.0 | 0.00 | 0.56 | 0.00 | 78 | 1001.5 |
| 20260508183047 | 51 | 37 | 4.0 | 10.0 | 0.00 | 0.56 | 0.00 | 76 | 1001.4 |
| 20260508181610 | 52 | 37 | 5.0 | 11.0 | 0.00 | 0.56 | 0.00 | 77 | 1001.3 |
| 20260508180054 | 51 | 31 | 7.0 | 13.0 | 0.00 | 0.56 | 0.00 | 81 | 1001.6 |
| 20260508174546 | 51 | 44 | 8.0 | 13.0 | 0.00 | 0.56 | 0.00 | 81 | 1001.8 |
| 20260508173045 | 50 | 36 | 7.0 | 14.0 | 0.00 | 0.56 | 0.00 | 84 | 1001.8 |
| 20260508171543 | 50 | 37 | 11.0 | 16.0 | 0.00 | 0.56 | 0.00 | 82 | 1001.6 |
| 20260508170042 | 50 | 60 | 9.0 | 16.0 | 0.00 | 0.56 | 0.00 | 81 | 1001.8 |
| 20260508164541 | 50 | 38 | 10.0 | 16.0 | 0.00 | 0.56 | 0.00 | 78 | 1001.7 |
| 20260508163043 | 51 | 50 | 8.0 | 13.0 | 0.00 | 0.56 | 0.00 | 78 | 1001.6 |
| 20260508161540 | 51 | 34 | 8.0 | 14.0 | 0.00 | 0.56 | 0.00 | 77 | 1001.5 |
| 20260508160039 | 51 | 36 | 5.0 | 10.0 | 0.00 | 0.56 | 0.00 | 78 | 1001.7 |
| 20260508154640 | 50 | 31 | 7.0 | 11.0 | 0.00 | 0.56 | 0.00 | 78 | 1001.7 |
| 20260508153045 | 50 | 40 | 6.0 | 12.0 | 0.00 | 0.56 | 0.00 | 83 | 1002.1 |
| 20260508151537 | 50 | 34 | 7.0 | 12.0 | 0.00 | 0.56 | 0.00 | 84 | 1002.2 |
| 20260508150037 | 50 | 34 | 9.0 | 11.0 | 0.00 | 0.56 | 0.00 | 83 | 1001.9 |
| 20260508144536 | 50 | 28 | 6.0 | 10.0 | 0.00 | 0.56 | 0.00 | 82 | 1002.2 |
| 20260508143037 | 50 | 25 | 4.0 | 10.0 | 0.00 | 0.56 | 0.00 | 81 | 1002.4 |
| 20260508141535 | 50 | 27 | 7.0 | 10.0 | 0.00 | 0.56 | 0.00 | 81 | 1002.6 |
| 20260508140037 | 50 | 24 | 6.0 | 10.0 | 0.00 | 0.56 | 0.00 | 80 | 1002.7 |
| 20260508134533 | 51 | 31 | 4.0 | 7.0 | 0.00 | 0.56 | 0.00 | 76 | 1002.6 |
| 20260508133038 | 51 | 22 | 2.0 | 6.0 | 0.00 | 0.56 | 0.00 | 77 | 1002.4 |
| 20260508131527 | 51 | 22 | 2.0 | 6.0 | 0.00 | 0.56 | 0.00 | 82 | 1002.5 |
| 20260508130027 | 50 | 22 | 3.0 | 5.0 | 0.00 | 0.56 | 0.00 | 83 | 1002.5 |
| 20260508124521 | 50 | 18 | 3.0 | 6.0 | 0.00 | 0.57 | 0.00 | 84 | 1002.3 |
| 20260508123018 | 49 | 17 | 2.0 | 4.0 | 0.00 | 0.57 | 0.00 | 86 | 1002.3 |
| 20260508121517 | 47 | 17 | 1.0 | 4.0 | 0.00 | 0.57 | 0.00 | 92 | 1002.5 |
| 20260508120015 | 47 | 17 | 1.0 | 3.0 | 0.00 | 0.57 | 0.00 | 94 | 1002.6 |
| 20260508114513 | 46 | 17 | 1.0 | 3.0 | 0.00 | 0.57 | 0.00 | 94 | 1002.5 |
| 20260508113014 | 45 | 17 | 2.0 | 3.0 | 0.00 | 0.57 | 0.00 | 95 | 1002.6 |
| 20260508111514 | 45 | 17 | 0.0 | 2.0 | 0.00 | 0.57 | 0.00 | 96 | 1002.8 |
| 20260508110011 | 44 | 17 | 0.0 | 1.0 | 0.00 | 0.57 | 0.00 | 96 | 1002.9 |
| 20260508104511 | 43 | 17 | 0.0 | 0.0 | 0.00 | 0.57 | 0.00 | 96 | 1002.7 |
| 20260508103016 | 43 | 17 | 0.0 | 1.0 | 0.00 | 0.57 | 0.00 | 96 | 1002.8 |
| 20260508101507 | 42 | 17 | 0.0 | 2.0 | 0.00 | 0.57 | 0.00 | 96 | 1002.6 |
| 20260508100006 | 41 | 17 | 0.0 | 3.0 | 0.00 | 0.57 | 0.00 | 96 | 1002.3 |
| 20260508094505 | 41 | 17 | 2.0 | 4.0 | 0.00 | 0.57 | 0.00 | 96 | 1002.1 |
| 20260508093005 | 40 | 19 | 0.0 | 0.0 | 0.00 | 0.57 | 0.00 | 95 | 1002.2 |
| 20260508091505 | 40 | 20 | 1.0 | 3.0 | 0.00 | 0.57 | 0.00 | 95 | 1002.1 |
| 20260508090001 | 40 | 19 | 1.0 | 3.0 | 0.00 | 0.57 | 0.00 | 95 | 1001.9 |
| 20260508084559 | 41 | 19 | 0.0 | 2.0 | 0.00 | 0.57 | 0.00 | 95 | 1001.6 |
| 20260508083101 | 41 | 19 | 0.0 | 0.0 | 0.00 | 0.57 | 0.00 | 95 | 1001.8 |
| 20260508081619 | 41 | 19 | 0.0 | 3.0 | 0.00 | 0.57 | 0.00 | 95 | 1001.4 |
| 20260508080058 | 42 | 19 | 0.0 | 3.0 | 0.00 | 0.57 | 0.00 | 94 | 1001.3 |
| 20260508074551 | 42 | 19 | 0.0 | 1.0 | 0.00 | 0.57 | 0.00 | 94 | 1001.8 |
| 20260508073052 | 43 | 19 | 1.0 | 3.0 | 0.00 | 0.57 | 0.00 | 94 | 1001.9 |
| 20260508071549 | 43 | 20 | 0.0 | 1.0 | 0.00 | 0.57 | 0.00 | 95 | 1001.9 |
| 20260508070052 | 44 | 20 | 1.0 | 4.0 | 0.00 | 0.57 | 0.00 | 95 | 1001.8 |
| 20260508064545 | 44 | 19 | 2.0 | 4.0 | 0.00 | 0.57 | 0.00 | 95 | 1001.7 |
| 20260508063043 | 43 | 28 | 1.0 | 3.0 | 0.00 | 0.57 | 0.00 | 95 | 1001.8 |
| 20260508061543 | 43 | 28 | 1.0 | 3.0 | 0.00 | 0.57 | 0.00 | 95 | 1001.6 |
| 20260508060042 | 43 | 27 | 0.0 | 4.0 | 0.00 | 0.57 | 0.00 | 95 | 1001.8 |
| 20260508054545 | 43 | 26 | 1.0 | 3.0 | 0.00 | 0.57 | 0.00 | 95 | 1001.8 |
| 20260508053040 | 43 | 19 | 1.0 | 3.0 | 0.00 | 0.57 | 0.00 | 94 | 1001.9 |
| 20260508051538 | 43 | 19 | 1.0 | 5.0 | 0.00 | 0.57 | 0.00 | 94 | 1001.8 |
| 20260508050037 | 44 | 25 | 5.0 | 11.0 | 0.00 | 0.57 | 0.00 | 93 | 1001.8 |
| 20260508044537 | 44 | 30 | 3.0 | 8.0 | 0.00 | 0.57 | 0.00 | 93 | 1001.6 |
| 20260508043030 | 45 | 29 | 3.0 | 5.0 | 0.00 | 0.57 | 0.00 | 93 | 1001.7 |
| 20260508041527 | 46 | 34 | 2.0 | 5.0 | 0.00 | 0.57 | 0.00 | 92 | 1001.8 |
| 20260508040022 | 47 | 11 | 3.0 | 5.0 | 0.00 | 0.57 | 0.00 | 93 | 1001.9 |
| 20260508034519 | 49 | 213 | 2.0 | 3.0 | 0.00 | 0.57 | 0.00 | 94 | 1001.8 |
| 20260508033020 | 49 | 213 | 0.0 | 3.0 | 0.00 | 0.57 | 0.00 | 94 | 1001.8 |
| 20260508031519 | 49 | 197 | 0.0 | 2.0 | 0.00 | 0.57 | 0.00 | 94 | 1001.7 |
| 20260508030016 | 49 | 197 | 2.0 | 6.0 | 0.00 | 0.57 | 0.57 | 94 | 1001.7 |
| 20260508024515 | 49 | 226 | 0.0 | 7.0 | 0.00 | 0.57 | 0.57 | 94 | 1001.9 |
| 20260508023015 | 49 | 244 | 2.0 | 5.0 | 0.00 | 0.57 | 0.57 | 94 | 1001.9 |
| 20260508021511 | 49 | 207 | 2.0 | 6.0 | 0.00 | 0.57 | 0.57 | 94 | 1001.9 |
| 20260508020010 | 49 | 281 | 2.0 | 6.0 | 0.00 | 0.57 | 0.57 | 94 | 1002.0 |
| 20260508014508 | 50 | 287 | 2.0 | 5.0 | 0.00 | 0.57 | 0.57 | 95 | 1002.1 |
| 20260508013005 | 50 | 306 | 1.0 | 3.0 | 0.00 | 0.57 | 0.57 | 94 | 1001.7 |
| 20260508011609 | 50 | 307 | 0.0 | 4.0 | 0.00 | 0.57 | 0.57 | 95 | 1001.7 |
| 20260508010006 | 50 | 346 | 1.0 | 4.0 | 0.00 | 0.57 | 0.57 | 94 | 1001.8 |
| 20260508004503 | 50 | 355 | 0.0 | 0.0 | 0.00 | 0.57 | 0.57 | 94 | 1001.8 |
| 20260508003002 | 50 | 355 | 0.0 | 2.0 | 0.00 | 0.57 | 0.57 | 94 | 1002.1 |
| 20260508001502 | 51 | 355 | 1.0 | 5.0 | 0.00 | 0.57 | 0.57 | 94 | 1001.9 |
| 20260508000001 | 51 | 343 | 0.0 | 3.0 | 0.00 | 0.57 | 0.57 | 95 | 1001.6 |
| 20260507234606 | 50 | 344 | 2.0 | 5.0 | 0.00 | 0.57 | 0.57 | 94 | 1001.1 |
| 20260507233057 | 51 | 302 | 2.0 | 4.0 | 0.00 | 0.57 | 0.57 | 93 | 1001.1 |
| 20260507231601 | 51 | 295 | 1.0 | 3.0 | 0.00 | 0.57 | 0.57 | 93 | 1001.2 |
| 20260507230100 | 51 | 295 | 0.0 | 4.0 | 0.00 | 0.57 | 0.57 | 93 | 1000.9 |
| 20260507224555 | 53 | 296 | 2.0 | 3.0 | 0.00 | 0.57 | 0.57 | 91 | 1000.9 |
| 20260507223056 | 54 | 292 | 2.0 | 4.0 | 0.00 | 0.57 | 0.57 | 93 | 1000.8 |
| 20260507221552 | 55 | 282 | 0.0 | 2.0 | 0.00 | 0.57 | 0.57 | 93 | 1000.9 |
| 20260507220052 | 55 | 283 | 0.0 | 3.0 | 0.00 | 0.57 | 0.57 | 93 | 1000.8 |
| 20260507214555 | 55 | 283 | 0.0 | 4.0 | 0.00 | 0.57 | 0.57 | 94 | 1000.8 |
| 20260507213049 | 54 | 214 | 0.0 | 5.0 | 0.01 | 0.57 | 0.57 | 94 | 1001.1 |
| 20260507211551 | 54 | 188 | 7.0 | 12.0 | 0.03 | 0.57 | 0.57 | 93 | 1000.9 |
| 20260507210050 | 54 | 252 | 3.0 | 12.0 | 0.08 | 0.57 | 0.57 | 93 | 1001.7 |
| 20260507204547 | 54 | 172 | 6.0 | 18.0 | 0.14 | 0.57 | 0.57 | 93 | 1000.6 |
| 20260507203049 | 54 | 226 | 7.0 | 16.0 | 0.17 | 0.56 | 0.56 | 92 | 1000.9 |
| 20260507201541 | 54 | 336 | 3.0 | 8.0 | 0.20 | 0.55 | 0.55 | 91 | 1001.6 |
| 20260507200047 | 55 | 161 | 6.0 | 15.0 | 0.21 | 0.50 | 0.50 | 91 | 1001.7 |
| 20260507194537 | 55 | 163 | 4.0 | 16.0 | 0.20 | 0.44 | 0.44 | 92 | 1002.8 |
| 20260507193035 | 55 | 150 | 9.0 | 17.0 | 0.28 | 0.40 | 0.40 | 91 | 1002.8 |